Location: Carabito
(9.8355°N, 67.9249°W)
Time: 21:26:49
(UTC+00:00)

Cosmos 2227 Rocket - Pass Details

Date: 23 May 2024
Orbit: 838 x 845 km, 71.0° (Epoch: 25 June)

Event Time Altitude Azimuth Distance (km) Brightness Sun altitude
Exits shadow 09:04:53 22° 228° (SW) 1,751 3.3 -15.6°
Maximum altitude 09:08:04 42° 287° (WNW) 1,176 2.6 -14.9°
Drops below altitude 10° 09:13:22 10° 357° (N) 2,455 4.9 -13.7°
Sets 09:15:57 0° 4° (N) 3,390 5.7 -13.1°
